Regional Weather Roundup
Issued by NWS Green Bay, WI

Home | Current Version | Previous Version | Text Only | Print | Product List | Glossary On
Versions: 1 2 3 4 5 6 7 8 9 10 11 12 13 14 15 16 17 18 19 20 21 22 23 24 25 26 27 28 29 30 31 32 33 34 35 36 37 38 39 40 41 42 43 44 45 46 47 48 49 50
000
ASUS43 KGRB 262359
RWRGRB

NORTH-CENTRAL AND NORTHEAST WISCONSIN REGIONAL WEATHER ROUNDUP
NATIONAL WEATHER SERVICE GREEN BAY WI
600 PM CST THU FEB 26 2015

WIZ005-009-010>012-018-019-270100-
NORTH CENTRAL WISCONSIN

CITY           SKY/WX    TMP DP  RH WIND       PRES   REMARKS
IRONWOOD       CLEAR      3  -6  66 W6        30.29S WCI  -8
MANITOWISH WTR NOT AVBL
ARBOR VITAE    NOT AVBL
EAGLE RIVER    NOT AVBL
LAND O LAKES   NOT AVBL
RHINELANDER    CLEAR      4 -10  52 NW3       30.26R
PHILLIPS       NOT AVBL
ANTIGO         NOT AVBL
TOMAHAWK       NOT AVBL
MERRILL        NOT AVBL
$$

WIZ013-073-270100-
NORTHEAST WISCONSIN

CITY           SKY/WX    TMP DP  RH WIND       PRES   REMARKS
IRON MOUNTAIN  CLEAR      6 -10  47 NW7       30.26R WCI  -6
MARINETTE      CLEAR      7  -6  56 CALM      30.32R
$$

WIZ017-030-035>037-045-270100-
CENTRAL WISCONSIN

CITY           SKY/WX    TMP DP  RH WIND       PRES   REMARKS
MEDFORD        NOT AVBL
WAUSAU         CLEAR      9  -9  44 NW7       30.29R WCI  -2
MOSINEE        PTCLDY     9  -8  47 W8        30.31R WCI  -4
MARSHFIELD     CLEAR      6  -8  52 NW8       30.32R WCI  -7
WISC RAPIDS    CLEAR      6  -8  52 W9        30.36R WCI  -8
STEVENS POINT  NOT AVBL
WAUPACA        NOT AVBL
SHAWANO        NOT AVBL
CLINTONVILLE   NOT AVBL
$$

WIZ038-039-048-051-270100-
FOX VALLEY

CITY           SKY/WX    TMP DP  RH WIND       PRES   REMARKS
NWS GREEN BAY  CLEAR     10  -2  58 SW3       30.33R
APPLETON       PTCLDY     9  -9  43 NW6       30.32R WCI  -1
OSHKOSH        MOCLDY     8  -4  58 S5        30.33R WCI   0
FOND DU LAC    CLEAR      8  -6  52 CALM      30.34R
$$

WIZ022-050-052-270100-
EAST CENTRAL WISCONSIN

CITY           SKY/WX    TMP DP  RH WIND       PRES   REMARKS
STURGEON BAY   CLEAR      7  -8  51 CALM      30.34R
MANITOWOC      NOT AVBL
SHEBOYGAN      CLEAR      6  -5  60 N3        30.34R
$$

LMZ563-521-522-541>543-270100-
LAKESHORE

STATION/POSITION TIME  TEMP    WIND        PRES    VSBY  WAVE
                       AIR SEA DIR/SP/G                  HT/PER
                 (UTC) (F)     (DEG/KT/KT) (MB)    (MI)  (FT/S)
SHEBOYGAN LKSHOR 2300   10     340/ 11/ 12 1029.1R
KEWAUNEE LKSHORE 2300    9      10/  2/  4 1026.2R
NORTHPORT PIER   2300    9     310/  2/  4 1026.4S
SISTER BAY LKSHO 2300   16        CALM       N/A
CHAMBERS ISLAND  2300    6     150/  1/  2 1026.8R
MENOMINEE LKSHOR 2300    7     190/  4     1027.4R
$$



USA.gov is the U.S. government's official web portal to all federal, state and local government web resources and services.